When you browse on this site, cookies collect data to enhance your experience and personalize the content and advertising you see.
Visit our Privacy Policy to learn more. By continuing to use the site, you agree to this use of cookies and data.
  • In Lithuania
  • List of Countries
  • For 7 days
  • Water Temperature
  • Weather Map
  • Weather Widgets
  • user-avatar
    Login

    Hourly Weather Wiktoria

    Today, 16 September, Monday

    Time Temperature Precipitation Wind Pressure Humidity
    00:00 +14°C° 0.2 mm 1 mps 749 mmHg 92%
    01:00 +13°C° 0.2 mm 1 mps 749 mmHg 93%
    02:00 +13°C° 0.3 mm 1 mps 749 mmHg 94%
    03:00 +13°C° 0.3 mm 1 mps 749 mmHg 95%
    04:00 +13°C° 0 mm 1 mps 749 mmHg 97%
    05:00 +12°C° 0.6 mm 2 mps 750 mmHg 96%
    06:00 +9°C° 0.6 mm 3 mps 750 mmHg 95%
    07:00 +8°C° 0.6 mm 3 mps 750 mmHg 94%
    08:00 +7°C° 1.1 mm 4 mps 751 mmHg 92%
    09:00 +8°C° 1.1 mm 4 mps 751 mmHg 90%
    10:00 +11°C° 0 mm 4 mps 752 mmHg 86%
    11:00 +10°C° 0.3 mm 5 mps 752 mmHg 81%
    12:00 +11°C° 0.3 mm 6 mps 752 mmHg 75%
    13:00 +11°C° 0.3 mm 6 mps 752 mmHg 70%
    14:00 +11°C° 0 mm 6 mps 752 mmHg 68%
    15:00 +11°C° 0 mm 6 mps 752 mmHg 66%
    16:00 +11°C° 0 mm 6 mps 753 mmHg 64%
    17:00 +10°C° 0 mm 6 mps 753 mmHg 60%
    18:00 +9°C° 0 mm 6 mps 754 mmHg 56%
    19:00 +7°C° 0 mm 6 mps 754 mmHg 51%
    20:00 +5°C° 0 mm 6 mps 754 mmHg 56%
    21:00 +4°C° 0 mm 6 mps 755 mmHg 61%
    22:00 +3°C° 0 mm 5 mps 756 mmHg 65%
    23:00 +3°C° 0 mm 5 mps 756 mmHg 67%

    Tomorrow, 17 September, Tuesday

    Time Temperature Precipitation Wind Pressure Humidity
    00:00 +2°C° 0 mm 5 mps 756 mmHg 69%
    01:00 +1°C° 0 mm 5 mps 756 mmHg 71%
    02:00 +1°C° 0 mm 4 mps 756 mmHg 72%
    03:00 +1°C° 0 mm 4 mps 756 mmHg 74%
    04:00 0°C° 0 mm 4 mps 756 mmHg 76%
    05:00 +1°C° 0 mm 3 mps 756 mmHg 77%
    06:00 +1°C° 0 mm 3 mps 757 mmHg 78%
    07:00 +1°C° 0 mm 3 mps 757 mmHg 79%
    08:00 +3°C° 0 mm 3 mps 757 mmHg 72%
    09:00 +7°C° 0 mm 2 mps 757 mmHg 65%
    10:00 +10°C° 0 mm 2 mps 757 mmHg 58%
    11:00 +12°C° 0 mm 2 mps 757 mmHg 56%
    12:00 +13°C° 0 mm 2 mps 757 mmHg 54%
    13:00 +14°C° 0 mm 2 mps 756 mmHg 52%
    14:00 +14°C° 0 mm 2 mps 756 mmHg 55%
    15:00 +14°C° 0 mm 2 mps 756 mmHg 57%
    16:00 +15°C° 0 mm 2 mps 756 mmHg 60%
    17:00 +13°C° 0 mm 2 mps 757 mmHg 65%
    18:00 +10°C° 0 mm 2 mps 757 mmHg 70%
    19:00 +7°C° 0 mm 2 mps 758 mmHg 76%
    20:00 +7°C° 0 mm 2 mps 758 mmHg 77%
    21:00 +6°C° 0 mm 2 mps 759 mmHg 79%
    22:00 +5°C° 0 mm 2 mps 759 mmHg 81%
    23:00 +4°C° 0 mm 2 mps 759 mmHg 82%

    Day after tomorrow, 18 September, Wednesday

    Time Temperature Precipitation Wind Pressure Humidity
    00:00 +4°C° 0 mm 2 mps 759 mmHg 83%
    01:00 +5°C° 0 mm 1 mps 759 mmHg 85%
    02:00 +4°C° 0 mm 1 mps 759 mmHg 85%
    03:00 +4°C° 0 mm 1 mps 759 mmHg 86%
    04:00 +4°C° 0 mm 1 mps 759 mmHg 87%
    05:00 +4°C° 0 mm 1 mps 759 mmHg 86%
    06:00 +5°C° 0 mm 1 mps 760 mmHg 85%
    07:00 +5°C° 0 mm 1 mps 760 mmHg 85%
    08:00 +7°C° 0 mm 1 mps 760 mmHg 79%
    09:00 +10°C° 0 mm 1 mps 759 mmHg 73%
    10:00 +12°C° 0 mm 1 mps 759 mmHg 68%
    11:00 +14°C° 0 mm 1 mps 759 mmHg 66%
    12:00 +15°C° 0 mm 1 mps 758 mmHg 63%
    13:00 +16°C° 0 mm 1 mps 757 mmHg 61%
    14:00 +16°C° 0 mm 1 mps 757 mmHg 62%
    15:00 +16°C° 0 mm 1 mps 757 mmHg 62%
    16:00 +16°C° 0 mm 1 mps 756 mmHg 62%
    17:00 +14°C° 0 mm 1 mps 756 mmHg 68%
    18:00 +11°C° 0 mm 0 mps 757 mmHg 74%
    19:00 +9°C° 0 mm 0 mps 757 mmHg 80%
    20:00 +9°C° 0 mm 1 mps 757 mmHg 82%
    21:00 +9°C° 0 mm 1 mps 757 mmHg 84%
    22:00 +8°C° 0 mm 1 mps 758 mmHg 86%
    23:00 +7°C° 0 mm 2 mps 757 mmHg 87%

    19 September, Thursday

    Time Temperature Precipitation Wind Pressure Humidity
    00:00 +7°C° 0 mm 2 mps 757 mmHg 89%
    01:00 +6°C° 0 mm 2 mps 757 mmHg 90%
    02:00 +6°C° 0 mm 2 mps 756 mmHg 90%
    03:00 +6°C° 0 mm 2 mps 756 mmHg 90%
    04:00 +6°C° 0 mm 2 mps 756 mmHg 90%
    05:00 +6°C° 0 mm 2 mps 756 mmHg 90%
    06:00 +7°C° 0 mm 2 mps 756 mmHg 90%
    07:00 +7°C° 0 mm 3 mps 755 mmHg 90%
    08:00 +10°C° 0 mm 4 mps 755 mmHg 85%
    09:00 +12°C° 0 mm 5 mps 755 mmHg 79%
    10:00 +15°C° 0 mm 6 mps 754 mmHg 74%
    11:00 +16°C° 0 mm 5 mps 753 mmHg 74%
    12:00 +19°C° 0 mm 5 mps 753 mmHg 74%
    13:00 +20°C° 0 mm 5 mps 752 mmHg 75%
    14:00 +20°C° 0 mm 5 mps 752 mmHg 75%
    15:00 +20°C° 0 mm 4 mps 751 mmHg 76%
    16:00 +21°C° 0 mm 4 mps 750 mmHg 77%
    17:00 +19°C° 0 mm 4 mps 751 mmHg 81%
    18:00 +17°C° 0 mm 4 mps 751 mmHg 86%
    19:00 +15°C° 0 mm 4 mps 751 mmHg 91%
    20:00 +14°C° 0 mm 4 mps 751 mmHg 91%
    21:00 +14°C° 0 mm 4 mps 751 mmHg 91%
    22:00 +14°C° 0 mm 4 mps 751 mmHg 91%
    23:00 +13°C° 0 mm 4 mps 751 mmHg 90%

    20 September, Friday

    Time Temperature Precipitation Wind Pressure Humidity
    00:00 +13°C° 0 mm 4 mps 751 mmHg 90%
    01:00 +13°C° 0 mm 5 mps 750 mmHg 90%
    02:00 +13°C° 0 mm 5 mps 750 mmHg 90%
    03:00 +12°C° 0 mm 5 mps 750 mmHg 89%
    04:00 +12°C° 0 mm 5 mps 749 mmHg 89%
    05:00 +12°C° 0 mm 5 mps 750 mmHg 89%
    06:00 +12°C° 0 mm 5 mps 750 mmHg 89%
    07:00 +12°C° 0 mm 5 mps 750 mmHg 89%
    08:00 +14°C° 0 mm 6 mps 750 mmHg 86%
    09:00 +16°C° 0 mm 7 mps 750 mmHg 82%
    10:00 +17°C° 0 mm 7 mps 750 mmHg 78%
    11:00 +20°C° 0 mm 7 mps 749 mmHg 75%
    12:00 +21°C° 0 mm 7 mps 748 mmHg 72%
    13:00 +22°C° 0 mm 7 mps 748 mmHg 68%
    14:00 +22°C° 0.1 mm 7 mps 747 mmHg 71%
    15:00 +22°C° 0.1 mm 6 mps 746 mmHg 74%
    16:00 +22°C° 0.1 mm 5 mps 745 mmHg 76%
    17:00 +21°C° 0.1 mm 5 mps 745 mmHg 77%
    18:00 +20°C° 0.1 mm 6 mps 745 mmHg 79%
    19:00 +17°C° 0.1 mm 6 mps 745 mmHg 80%
    20:00 +16°C° 0.4 mm 6 mps 745 mmHg 84%
    21:00 +15°C° 0.4 mm 5 mps 745 mmHg 89%
    22:00 +14°C° 0.4 mm 5 mps 746 mmHg 93%
    23:00 +13°C° 0.2 mm 4 mps 746 mmHg 93%

    21 September, Saturday

    Time Temperature Precipitation Wind Pressure Humidity
    00:00 +12°C° 0.2 mm 3 mps 746 mmHg 93%
    01:00 +13°C° 0.2 mm 1 mps 746 mmHg 92%
    02:00 +12°C° 0.4 mm 2 mps 746 mmHg 94%
    03:00 +11°C° 0.4 mm 3 mps 747 mmHg 95%
    04:00 +11°C° 0.4 mm 4 mps 747 mmHg 97%
    05:00 +8°C° 0.1 mm 4 mps 748 mmHg 96%
    06:00 +7°C° 0.1 mm 4 mps 749 mmHg 96%
    07:00 +6°C° 0.1 mm 4 mps 750 mmHg 96%
    08:00 +7°C° 0 mm 4 mps 751 mmHg 89%
    09:00 +8°C° 0 mm 4 mps 752 mmHg 83%
    10:00 +11°C° 0 mm 4 mps 752 mmHg 76%
    11:00 +11°C° 0 mm 4 mps 752 mmHg 69%
    12:00 +12°C° 0 mm 5 mps 752 mmHg 62%
    13:00 +13°C° 0 mm 5 mps 752 mmHg 55%
    14:00 +13°C° 0 mm 5 mps 752 mmHg 57%
    15:00 +12°C° 0 mm 4 mps 752 mmHg 60%
    16:00 +12°C° 0 mm 4 mps 752 mmHg 63%
    17:00 +11°C° 0 mm 3 mps 753 mmHg 67%
    18:00 +10°C° 0 mm 2 mps 753 mmHg 70%
    19:00 +8°C° 0 mm 2 mps 754 mmHg 74%
    20:00 +9°C° 0 mm 1 mps 755 mmHg 75%
    21:00 +8°C° 0 mm 1 mps 755 mmHg 76%
    22:00 +8°C° 0 mm 1 mps 755 mmHg 78%
    23:00 +7°C° 0 mm 1 mps 755 mmHg 82%
    Show more